Time,TemperatureF,DewpointF,PressureIn,WindDirection,WindDirectionDegrees,WindSpeedMPH,WindSpeedGustMPH,Humidity,HourlyPrecipIn,Conditions,Clouds,dailyrainin,SoftwareType,DateUTC
2013-07-26 00:02:00,77.3,72.4,29.93,SSE,162,3.0,5.0,85,0.00,,,0.00,LWC2 V0.39 B123,2013-07-26 06:02:00,
2013-07-26 00:07:00,77.3,72.4,29.93,SE,124,1.0,4.0,85,0.00,,,0.00,LWC2 V0.39 B123,2013-07-26 06:07:00,
2013-07-26 00:12:00,77.4,72.5,29.92,ESE,112,2.0,3.0,85,0.00,,,0.00,LWC2 V0.39 B123,2013-07-26 06:12:00,
2013-07-26 00:17:00,77.2,72.3,29.92,ESE,103,3.0,4.0,85,0.00,,,0.00,LWC2 V0.39 B123,2013-07-26 06:17:00,
2013-07-26 00:22:00,77.1,72.6,29.92,East,97,2.0,4.0,86,0.00,,,0.00,LWC2 V0.39 B123,2013-07-26 06:22:00,
2013-07-26 00:27:00,77.2,72.7,29.92,SE,135,2.0,4.0,86,0.00,,,0.00,LWC2 V0.39 B123,2013-07-26 06:27:00,
2013-07-26 00:32:00,77.3,72.4,29.91,SE,128,4.0,4.0,85,0.00,,,0.00,LWC2 V0.39 B123,2013-07-26 06:32:00,
2013-07-26 00:37:00,77.4,72.5,29.91,SE,127,2.0,5.0,85,0.00,,,0.00,LWC2 V0.39 B123,2013-07-26 06:37:00,
2013-07-26 00:42:00,77.3,72.4,29.91,SE,142,2.0,3.0,85,0.00,,,0.00,LWC2 V0.39 B123,2013-07-26 06:42:00,
2013-07-26 00:47:00,77.2,72.7,29.90,SE,139,2.0,4.0,86,0.00,,,0.00,LWC2 V0.39 B123,2013-07-26 06:47:00,
2013-07-26 00:52:00,77.0,72.5,29.91,SSE,148,2.0,2.0,86,0.00,,,0.00,LWC2 V0.39 B123,2013-07-26 06:52:00,
2013-07-26 00:57:00,77.0,72.5,29.91,SSE,160,1.0,4.0,86,0.00,,,0.00,LWC2 V0.39 B123,2013-07-26 06:57:00,
2013-07-26 01:02:00,77.0,72.5,29.90,ESE,121,1.0,4.0,86,0.00,,,0.00,LWC2 V0.39 B123,2013-07-26 07:02:00,
2013-07-26 01:07:00,77.0,72.5,29.90,SE,145,1.0,2.0,86,0.00,,,0.00,LWC2 V0.39 B123,2013-07-26 07:07:00,
2013-07-26 01:12:00,76.8,72.6,29.91,ESE,117,1.0,2.0,87,0.00,,,0.00,LWC2 V0.39 B123,2013-07-26 07:12:00,
2013-07-26 01:17:00,76.8,72.6,29.91,ESE,108,0.0,2.0,87,0.00,,,0.00,LWC2 V0.39 B123,2013-07-26 07:17:00,
2013-07-26 01:18:00,76.8,72.6,29.91,ESE,108,0.0,1.0,87,0.00,,,0.00,LWC2 V0.39 B123,2013-07-26 07:18:00,
2013-07-26 01:23:00,76.7,72.5,29.91,ESE,103,0.0,2.0,87,0.00,,,0.00,LWC2 V0.39 B123,2013-07-26 07:23:00,
2013-07-26 01:28:00,76.8,72.6,29.91,ESE,121,0.0,1.0,87,0.00,,,0.00,LWC2 V0.39 B123,2013-07-26 07:28:00,
2013-07-26 01:33:00,76.9,72.7,29.90,ESE,115,0.0,0.0,87,0.00,,,0.00,LWC2 V0.39 B123,2013-07-26 07:33:00,
2013-07-26 01:38:00,76.8,72.6,29.90,ESE,113,0.0,1.0,87,0.00,,,0.00,LWC2 V0.39 B123,2013-07-26 07:38:00,
2013-07-26 01:43:00,76.8,72.6,29.90,SE,137,0.0,1.0,87,0.00,,,0.00,LWC2 V0.39 B123,2013-07-26 07:43:00,
2013-07-26 01:48:00,76.8,72.6,29.90,SE,131,0.0,0.0,87,0.00,,,0.00,LWC2 V0.39 B123,2013-07-26 07:48:00,
2013-07-26 01:53:00,76.8,72.6,29.91,ESE,121,0.0,1.0,87,0.00,,,0.00,LWC2 V0.39 B123,2013-07-26 07:53:00,
2013-07-26 01:58:00,76.8,72.6,29.91,North,4,0.0,1.0,87,0.00,,,0.00,LWC2 V0.39 B123,2013-07-26 07:58:00,
2013-07-26 02:03:00,76.7,72.5,29.92,South,176,0.0,3.0,87,0.00,,,0.00,LWC2 V0.39 B123,2013-07-26 08:03:00,
2013-07-26 02:08:00,76.6,72.4,29.92,SSW,194,2.0,3.0,87,0.00,,,0.00,LWC2 V0.39 B123,2013-07-26 08:08:00,
2013-07-26 02:13:00,76.6,72.8,29.92,East,90,1.0,2.0,88,0.00,,,0.00,LWC2 V0.39 B123,2013-07-26 08:13:00,
2013-07-26 02:18:00,76.5,72.7,29.92,WNW,294,0.0,1.0,88,0.00,,,0.00,LWC2 V0.39 B123,2013-07-26 08:18:00,
2013-07-26 02:23:00,76.4,72.6,29.92,SE,125,0.0,1.0,88,0.00,,,0.00,LWC2 V0.39 B123,2013-07-26 08:23:00,
2013-07-26 02:28:00,76.3,72.5,29.92,SW,232,0.0,6.0,88,0.12,,,0.01,LWC2 V0.39 B123,2013-07-26 08:28:00,
2013-07-26 02:33:00,76.2,72.7,29.91,SSE,166,1.0,6.0,89,0.15,,,0.02,LWC2 V0.39 B123,2013-07-26 08:33:00,
2013-07-26 02:38:00,76.0,72.5,29.91,SW,214,2.0,2.0,89,0.11,,,0.03,LWC2 V0.39 B123,2013-07-26 08:38:00,
2013-07-26 02:43:00,75.8,72.6,29.91,South,177,0.0,1.0,90,0.12,,,0.04,LWC2 V0.39 B123,2013-07-26 08:43:00,
2013-07-26 02:48:00,75.6,72.8,29.91,SE,138,0.0,4.0,91,0.13,,,0.06,LWC2 V0.39 B123,2013-07-26 08:48:00,
2013-07-26 02:53:00,75.5,72.7,29.91,SE,146,0.0,1.0,91,0.12,,,0.06,LWC2 V0.39 B123,2013-07-26 08:53:00,
2013-07-26 02:58:00,75.4,72.6,29.92,SSW,195,2.0,3.0,91,0.10,,,0.07,LWC2 V0.39 B123,2013-07-26 08:58:00,
2013-07-26 03:03:00,75.3,72.5,29.92,SW,232,1.0,2.0,91,0.14,,,0.08,LWC2 V0.39 B123,2013-07-26 09:03:00,
2013-07-26 03:08:00,75.3,72.8,29.93,South,174,1.0,1.0,92,0.11,,,0.09,LWC2 V0.39 B123,2013-07-26 09:08:00,
2013-07-26 03:13:00,75.1,72.6,29.93,SSE,156,0.0,2.0,92,0.12,,,0.10,LWC2 V0.39 B123,2013-07-26 09:13:00,
2013-07-26 03:18:00,75.0,72.5,29.93,SE,134,0.0,0.0,92,0.11,,,0.11,LWC2 V0.39 B123,2013-07-26 09:18:00,
2013-07-26 03:23:00,74.9,72.4,29.93,North,0,0.0,0.0,92,0.13,,,0.12,LWC2 V0.39 B123,2013-07-26 09:23:00,
2013-07-26 03:28:00,74.8,72.6,29.93,North,359,0.0,0.0,93,0.18,,,0.14,LWC2 V0.39 B123,2013-07-26 09:28:00,
2013-07-26 03:33:00,74.7,72.5,29.93,North,359,0.0,0.0,93,0.16,,,0.15,LWC2 V0.39 B123,2013-07-26 09:33:00,
2013-07-26 03:38:00,74.6,72.4,29.94,North,359,0.0,0.0,93,0.15,,,0.16,LWC2 V0.39 B123,2013-07-26 09:38:00,
2013-07-26 03:43:00,74.5,72.3,29.94,East,101,0.0,0.0,93,0.17,,,0.18,LWC2 V0.39 B123,2013-07-26 09:43:00,
2013-07-26 03:48:00,74.4,72.6,29.93,NW,322,0.0,0.0,94,0.19,,,0.19,LWC2 V0.39 B123,2013-07-26 09:48:00,
2013-07-26 03:53:00,74.4,72.6,29.93,West,271,0.0,1.0,94,0.19,,,0.21,LWC2 V0.39 B123,2013-07-26 09:53:00,
2013-07-26 03:58:00,74.3,72.5,29.92,SSW,195,3.0,6.0,94,0.22,,,0.22,LWC2 V0.39 B123,2013-07-26 09:58:00,
2013-07-26 04:03:00,74.2,72.4,29.91,SSW,194,5.0,8.0,94,0.29,,,0.25,LWC2 V0.39 B123,2013-07-26 10:03:00,
2013-07-26 04:08:00,74.1,72.6,29.89,SSW,195,9.0,11.0,95,0.21,,,0.26,LWC2 V0.39 B123,2013-07-26 10:08:00,
2013-07-26 04:13:00,74.1,72.6,29.87,WSW,247,6.0,8.0,95,0.19,,,0.28,LWC2 V0.39 B123,2013-07-26 10:13:00,
2013-07-26 04:18:00,74.1,72.6,29.85,South,178,5.0,14.0,95,0.16,,,0.30,LWC2 V0.39 B123,2013-07-26 10:18:00,
2013-07-26 04:23:00,74.0,72.5,29.86,West,261,3.0,13.0,95,0.14,,,0.31,LWC2 V0.39 B123,2013-07-26 10:23:00,
2013-07-26 04:28:00,74.0,72.5,29.86,SW,224,7.0,10.0,95,0.14,,,0.32,LWC2 V0.39 B123,2013-07-26 10:28:00,
2013-07-26 04:33:00,73.9,72.1,29.87,SW,222,2.0,11.0,94,0.15,,,0.33,LWC2 V0.39 B123,2013-07-26 10:33:00,
2013-07-26 04:38:00,73.7,71.9,29.87,South,177,3.0,7.0,94,0.12,,,0.34,LWC2 V0.39 B123,2013-07-26 10:38:00,
2013-07-26 04:43:00,73.7,71.9,29.87,WSW,257,2.0,4.0,94,0.10,,,0.35,LWC2 V0.39 B123,2013-07-26 10:43:00,
2013-07-26 04:48:00,73.5,71.3,29.88,SW,225,1.0,7.0,93,0.21,,,0.36,LWC2 V0.39 B123,2013-07-26 10:48:00,
2013-07-26 04:53:00,73.4,71.2,29.90,NE,53,0.0,3.0,93,0.14,,,0.38,LWC2 V0.39 B123,2013-07-26 10:53:00,
2013-07-26 04:58:00,73.2,71.0,29.91,North,6,1.0,3.0,93,0.16,,,0.39,LWC2 V0.39 B123,2013-07-26 10:58:00,
2013-07-26 05:03:00,73.0,70.8,29.90,SW,225,0.0,5.0,93,0.21,,,0.40,LWC2 V0.39 B123,2013-07-26 11:03:00,
2013-07-26 05:08:00,72.8,70.7,29.91,SE,131,0.0,3.0,93,0.28,,,0.43,LWC2 V0.39 B123,2013-07-26 11:08:00,
2013-07-26 05:13:00,72.6,70.5,29.91,SE,138,1.0,4.0,93,0.31,,,0.45,LWC2 V0.39 B123,2013-07-26 11:13:00,
2013-07-26 05:18:00,72.6,70.5,29.91,ESE,113,0.0,2.0,93,0.31,,,0.47,LWC2 V0.39 B123,2013-07-26 11:18:00,
2013-07-26 05:23:00,72.6,70.5,29.91,ESE,115,2.0,3.0,93,0.19,,,0.49,LWC2 V0.39 B123,2013-07-26 11:23:00,
2013-07-26 05:28:00,72.5,70.4,29.91,SSE,154,2.0,3.0,93,0.12,,,0.50,LWC2 V0.39 B123,2013-07-26 11:28:00,
2013-07-26 05:33:00,72.3,70.5,29.90,South,184,2.0,2.0,94,0.08,,,0.51,LWC2 V0.39 B123,2013-07-26 11:33:00,
2013-07-26 05:38:00,72.2,70.4,29.90,ESE,112,0.0,2.0,94,0.08,,,0.51,LWC2 V0.39 B123,2013-07-26 11:38:00,
2013-07-26 05:43:00,72.3,70.2,29.91,ESE,115,0.0,1.0,93,0.05,,,0.51,LWC2 V0.39 B123,2013-07-26 11:43:00,
2013-07-26 05:48:00,72.3,70.2,29.91,ESE,116,0.0,1.0,93,0.00,,,0.51,LWC2 V0.39 B123,2013-07-26 11:48:00,
2013-07-26 05:53:00,72.2,70.1,29.91,ENE,73,0.0,1.0,93,0.00,,,0.51,LWC2 V0.39 B123,2013-07-26 11:53:00,
2013-07-26 05:58:00,72.2,70.1,29.91,SE,143,0.0,0.0,93,0.00,,,0.51,LWC2 V0.39 B123,2013-07-26 11:58:00,
2013-07-26 06:03:00,72.2,70.1,29.91,NW,321,0.0,1.0,93,0.00,,,0.51,LWC2 V0.39 B123,2013-07-26 12:03:00,
2013-07-26 06:08:00,72.1,70.0,29.92,NW,322,0.0,0.0,93,0.00,,,0.51,LWC2 V0.39 B123,2013-07-26 12:08:00,
2013-07-26 06:13:00,72.1,70.0,29.92,NW,322,0.0,0.0,93,0.00,,,0.51,LWC2 V0.39 B123,2013-07-26 12:13:00,
2013-07-26 06:18:00,72.0,69.9,29.92,ENE,75,0.0,0.0,93,0.00,,,0.51,LWC2 V0.39 B123,2013-07-26 12:18:00,
2013-07-26 06:23:00,72.0,70.2,29.92,NNE,32,0.0,0.0,94,0.00,,,0.51,LWC2 V0.39 B123,2013-07-26 12:23:00,
2013-07-26 06:28:00,71.9,70.1,29.93,NNE,25,0.0,0.0,94,0.00,,,0.51,LWC2 V0.39 B123,2013-07-26 12:28:00,
2013-07-26 06:33:00,72.0,70.2,29.93,NNE,25,0.0,0.0,94,0.00,,,0.51,LWC2 V0.39 B123,2013-07-26 12:33:00,
2013-07-26 06:38:00,72.1,70.3,29.94,NNE,25,0.0,0.0,94,0.00,,,0.51,LWC2 V0.39 B123,2013-07-26 12:38:00,
2013-07-26 06:43:00,72.1,70.3,29.93,NNE,25,0.0,0.0,94,0.00,,,0.51,LWC2 V0.39 B123,2013-07-26 12:43:00,
2013-07-26 06:48:00,72.1,70.3,29.93,NNE,25,0.0,0.0,94,0.00,,,0.51,LWC2 V0.39 B123,2013-07-26 12:48:00,
2013-07-26 06:53:00,72.1,70.3,29.93,NE,38,0.0,0.0,94,0.00,,,0.51,LWC2 V0.39 B123,2013-07-26 12:53:00,
2013-07-26 06:58:00,72.2,70.4,29.93,SE,125,0.0,0.0,94,0.00,,,0.51,LWC2 V0.39 B123,2013-07-26 12:58:00,
2013-07-26 07:03:00,72.3,70.5,29.93,SE,125,0.0,0.0,94,0.00,,,0.51,LWC2 V0.39 B123,2013-07-26 13:03:00,
2013-07-26 07:08:00,72.4,70.6,29.94,SE,125,0.0,0.0,94,0.00,,,0.51,LWC2 V0.39 B123,2013-07-26 13:08:00,
2013-07-26 07:13:00,72.6,70.8,29.94,SE,125,0.0,0.0,94,0.00,,,0.51,LWC2 V0.39 B123,2013-07-26 13:13:00,
2013-07-26 07:18:00,72.8,71.0,29.94,SE,126,0.0,0.0,94,0.00,,,0.51,LWC2 V0.39 B123,2013-07-26 13:18:00,
2013-07-26 07:23:00,73.0,71.2,29.95,SE,125,0.0,0.0,94,0.00,,,0.51,LWC2 V0.39 B123,2013-07-26 13:23:00,
2013-07-26 07:28:00,73.0,71.2,29.95,SE,125,0.0,0.0,94,0.00,,,0.51,LWC2 V0.39 B123,2013-07-26 13:28:00,
2013-07-26 07:33:00,73.1,71.3,29.94,SE,126,0.0,0.0,94,0.00,,,0.51,LWC2 V0.39 B123,2013-07-26 13:33:00,
2013-07-26 07:38:00,73.2,71.4,29.94,SE,125,0.0,0.0,94,0.00,,,0.51,LWC2 V0.39 B123,2013-07-26 13:38:00,
2013-07-26 07:43:00,73.4,71.6,29.94,SE,125,0.0,0.0,94,0.00,,,0.51,LWC2 V0.39 B123,2013-07-26 13:43:00,
2013-07-26 07:49:00,73.5,71.7,29.94,ESE,119,0.0,0.0,94,0.00,,,0.51,LWC2 V0.39 B123,2013-07-26 13:49:00,
2013-07-26 07:54:00,73.7,71.9,29.94,ESE,118,0.0,0.0,94,0.00,,,0.51,LWC2 V0.39 B123,2013-07-26 13:54:00,
2013-07-26 07:59:00,73.7,71.9,29.94,ESE,113,0.0,0.0,94,0.00,,,0.51,LWC2 V0.39 B123,2013-07-26 13:59:00,
2013-07-26 08:04:00,73.9,72.1,29.95,ESE,113,0.0,0.0,94,0.00,,,0.51,LWC2 V0.39 B123,2013-07-26 14:04:00,
2013-07-26 08:09:00,73.9,71.7,29.95,ESE,113,0.0,0.0,93,0.00,,,0.51,LWC2 V0.39 B123,2013-07-26 14:09:00,
2013-07-26 08:14:00,74.2,72.0,29.94,ESE,113,0.0,0.0,93,0.00,,,0.51,LWC2 V0.39 B123,2013-07-26 14:14:00,
2013-07-26 08:19:00,74.3,72.1,29.94,ESE,113,0.0,0.0,93,0.00,,,0.51,LWC2 V0.39 B123,2013-07-26 14:19:00,
2013-07-26 08:24:00,74.5,72.3,29.95,ESE,113,0.0,0.0,93,0.00,,,0.51,LWC2 V0.39 B123,2013-07-26 14:24:00,
2013-07-26 08:29:00,74.6,72.4,29.95,ESE,113,0.0,0.0,93,0.00,,,0.51,LWC2 V0.39 B123,2013-07-26 14:29:00,
2013-07-26 08:34:00,74.5,72.0,29.95,ENE,78,0.0,0.0,92,0.00,,,0.51,LWC2 V0.39 B123,2013-07-26 14:34:00,
2013-07-26 08:39:00,74.5,72.0,29.95,ESE,104,0.0,0.0,92,0.00,,,0.51,LWC2 V0.39 B123,2013-07-26 14:39:00,
2013-07-26 08:44:00,74.6,72.1,29.95,ESE,104,0.0,0.0,92,0.00,,,0.51,LWC2 V0.39 B123,2013-07-26 14:44:00,
2013-07-26 08:49:00,74.7,72.2,29.94,ESE,104,0.0,0.0,92,0.00,,,0.51,LWC2 V0.39 B123,2013-07-26 14:49:00,
2013-07-26 08:54:00,74.8,72.3,29.95,ESE,104,0.0,0.0,92,0.00,,,0.51,LWC2 V0.39 B123,2013-07-26 14:54:00,
2013-07-26 08:59:00,74.7,71.9,29.94,ESE,105,0.0,0.0,91,0.00,,,0.51,LWC2 V0.39 B123,2013-07-26 14:59:00,
2013-07-26 09:04:00,74.6,71.8,29.94,ESE,104,0.0,0.0,91,0.00,,,0.51,LWC2 V0.39 B123,2013-07-26 15:04:00,
2013-07-26 09:09:00,74.5,71.7,29.94,ESE,104,0.0,0.0,91,0.00,,,0.51,LWC2 V0.39 B123,2013-07-26 15:09:00,
2013-07-26 09:14:00,74.5,71.7,29.94,ESE,104,0.0,0.0,91,0.00,,,0.51,LWC2 V0.39 B123,2013-07-26 15:14:00,
2013-07-26 09:19:00,74.7,71.9,29.94,SE,127,0.0,0.0,91,0.00,,,0.51,LWC2 V0.39 B123,2013-07-26 15:19:00,
2013-07-26 09:24:00,75.0,71.9,29.94,East,91,0.0,0.0,90,0.00,,,0.51,LWC2 V0.39 B123,2013-07-26 15:24:00,
2013-07-26 09:29:00,75.4,72.3,29.94,SSE,151,0.0,0.0,90,0.00,,,0.51,LWC2 V0.39 B123,2013-07-26 15:29:00,
2013-07-26 09:34:00,75.8,72.3,29.94,SE,141,0.0,0.0,89,0.00,,,0.51,LWC2 V0.39 B123,2013-07-26 15:34:00,
2013-07-26 09:39:00,75.9,71.7,29.94,SE,141,0.0,0.0,87,0.00,,,0.51,LWC2 V0.39 B123,2013-07-26 15:39:00,
2013-07-26 09:44:00,76.0,72.5,29.94,SE,141,0.0,0.0,89,0.00,,,0.51,LWC2 V0.39 B123,2013-07-26 15:44:00,
2013-07-26 09:49:00,76.0,72.2,29.94,SW,224,0.0,1.0,88,0.00,,,0.51,LWC2 V0.39 B123,2013-07-26 15:49:00,
2013-07-26 09:54:00,76.1,72.6,29.94,SW,224,0.0,0.0,89,0.00,,,0.51,LWC2 V0.39 B123,2013-07-26 15:54:00,
2013-07-26 09:59:00,75.9,72.4,29.94,East,100,1.0,2.0,89,0.00,,,0.51,LWC2 V0.39 B123,2013-07-26 15:59:00,
2013-07-26 10:04:00,75.6,72.4,29.94,East,100,0.0,0.0,90,0.00,,,0.51,LWC2 V0.39 B123,2013-07-26 16:04:00,
2013-07-26 10:09:00,75.5,72.4,29.94,East,100,0.0,1.0,90,0.00,,,0.51,LWC2 V0.39 B123,2013-07-26 16:09:00,
2013-07-26 10:14:00,75.4,72.3,29.94,ESE,107,1.0,2.0,90,0.00,,,0.51,LWC2 V0.39 B123,2013-07-26 16:14:00,
2013-07-26 10:19:00,75.1,72.3,29.94,ESE,110,0.0,0.0,91,0.00,,,0.51,LWC2 V0.39 B123,2013-07-26 16:19:00,
2013-07-26 10:24:00,75.0,72.2,29.94,ESE,110,0.0,0.0,91,0.00,,,0.51,LWC2 V0.39 B123,2013-07-26 16:24:00,
2013-07-26 10:29:00,75.2,72.7,29.94,ESE,115,0.0,0.0,92,0.00,,,0.51,LWC2 V0.39 B123,2013-07-26 16:29:00,
2013-07-26 10:34:00,75.3,72.8,29.94,ESE,112,0.0,0.0,92,0.00,,,0.51,LWC2 V0.39 B123,2013-07-26 16:34:00,
2013-07-26 10:39:00,75.4,72.9,29.94,ESE,114,0.0,0.0,92,0.00,,,0.51,LWC2 V0.39 B123,2013-07-26 16:39:00,
2013-07-26 10:44:00,75.5,73.0,29.94,ESE,104,0.0,3.0,92,0.00,,,0.51,LWC2 V0.39 B123,2013-07-26 16:44:00,
2013-07-26 10:49:00,75.8,73.3,29.94,ESE,110,1.0,2.0,92,0.00,,,0.51,LWC2 V0.39 B123,2013-07-26 16:49:00,
2013-07-26 10:54:00,76.1,73.6,29.94,ESE,120,0.0,0.0,92,0.00,,,0.51,LWC2 V0.39 B123,2013-07-26 16:54:00,
2013-07-26 10:59:00,76.1,72.6,29.94,ESE,113,0.0,1.0,89,0.00,,,0.51,LWC2 V0.39 B123,2013-07-26 16:59:00,
2013-07-26 11:04:00,76.4,72.9,29.94,ESE,115,1.0,1.0,89,0.00,,,0.51,LWC2 V0.39 B123,2013-07-26 17:04:00,
2013-07-26 11:09:00,76.6,73.1,29.94,NE,44,0.0,1.0,89,0.00,,,0.51,LWC2 V0.39 B123,2013-07-26 17:09:00,
2013-07-26 11:14:00,76.7,73.5,29.93,ENE,62,0.0,2.0,90,0.00,,,0.51,LWC2 V0.39 B123,2013-07-26 17:14:00,
2013-07-26 11:19:00,76.5,73.0,29.93,ENE,67,0.0,0.0,89,0.00,,,0.52,LWC2 V0.39 B123,2013-07-26 17:19:00,
2013-07-26 11:24:00,76.3,72.8,29.93,ENE,69,0.0,0.0,89,0.00,,,0.52,LWC2 V0.39 B123,2013-07-26 17:24:00,
2013-07-26 11:29:00,75.8,72.6,29.94,ENE,68,0.0,0.0,90,0.00,,,0.52,LWC2 V0.39 B123,2013-07-26 17:29:00,
2013-07-26 11:34:00,75.4,72.6,29.94,ESE,115,1.0,2.0,91,0.00,,,0.52,LWC2 V0.39 B123,2013-07-26 17:34:00,
2013-07-26 11:39:00,75.1,72.6,29.94,ESE,110,0.0,0.0,92,0.00,,,0.52,LWC2 V0.39 B123,2013-07-26 17:39:00,
2013-07-26 11:44:00,75.0,72.8,29.94,East,100,0.0,0.0,93,0.00,,,0.52,LWC2 V0.39 B123,2013-07-26 17:44:00,
2013-07-26 11:49:00,75.1,72.9,29.94,NE,41,0.0,0.0,93,0.00,,,0.52,LWC2 V0.39 B123,2013-07-26 17:49:00,
2013-07-26 11:54:00,74.9,72.7,29.94,NE,51,0.0,1.0,93,0.00,,,0.52,LWC2 V0.39 B123,2013-07-26 17:54:00,
2013-07-26 11:59:00,74.9,72.7,29.94,East,89,0.0,0.0,93,0.00,,,0.52,LWC2 V0.39 B123,2013-07-26 17:59:00,
2013-07-26 12:04:00,74.9,72.7,29.93,NE,47,0.0,0.0,93,0.00,,,0.52,LWC2 V0.39 B123,2013-07-26 18:04:00,
2013-07-26 12:09:00,75.0,73.1,29.93,NNE,25,0.0,0.0,94,0.00,,,0.53,LWC2 V0.39 B123,2013-07-26 18:09:00,
2013-07-26 12:15:00,75.1,73.2,29.93,NE,43,0.0,1.0,94,0.00,,,0.53,LWC2 V0.39 B123,2013-07-26 18:15:00,
2013-07-26 12:20:00,75.1,73.2,29.93,NNE,27,1.0,4.0,94,0.05,,,0.54,LWC2 V0.39 B123,2013-07-26 18:20:00,
2013-07-26 12:25:00,75.1,73.2,29.93,NE,41,0.0,1.0,94,0.05,,,0.54,LWC2 V0.39 B123,2013-07-26 18:25:00,
2013-07-26 12:30:00,75.2,73.3,29.94,North,359,1.0,3.0,94,0.07,,,0.55,LWC2 V0.39 B123,2013-07-26 18:30:00,
2013-07-26 12:35:00,75.1,73.2,29.93,NE,36,0.0,2.0,94,0.09,,,0.56,LWC2 V0.39 B123,2013-07-26 18:35:00,
2013-07-26 12:40:00,75.0,73.1,29.93,ENE,59,0.0,2.0,94,0.09,,,0.56,LWC2 V0.39 B123,2013-07-26 18:40:00,
2013-07-26 12:45:00,75.0,73.1,29.93,NNE,32,0.0,1.0,94,0.08,,,0.57,LWC2 V0.39 B123,2013-07-26 18:45:00,
2013-07-26 12:50:00,75.0,73.1,29.93,NE,34,1.0,2.0,94,0.07,,,0.57,LWC2 V0.39 B123,2013-07-26 18:50:00,
2013-07-26 12:55:00,74.6,72.8,29.93,NNW,346,1.0,4.0,94,0.05,,,0.58,LWC2 V0.39 B123,2013-07-26 18:55:00,
2013-07-26 13:00:00,74.0,72.2,29.93,NW,322,1.0,3.0,94,0.25,,,0.59,LWC2 V0.39 B123,2013-07-26 19:00:00,
2013-07-26 13:05:00,73.7,71.9,29.93,NNE,23,2.0,4.0,94,0.22,,,0.61,LWC2 V0.39 B123,2013-07-26 19:05:00,
2013-07-26 13:10:00,73.5,71.7,29.93,NE,51,2.0,5.0,94,0.15,,,0.62,LWC2 V0.39 B123,2013-07-26 19:10:00,
2013-07-26 13:15:00,73.5,72.0,29.93,NE,43,0.0,2.0,95,0.07,,,0.62,LWC2 V0.39 B123,2013-07-26 19:15:00,
2013-07-26 13:20:00,73.6,72.1,29.93,NE,43,2.0,4.0,95,0.07,,,0.63,LWC2 V0.39 B123,2013-07-26 19:20:00,
2013-07-26 13:25:00,73.6,72.1,29.94,NNE,32,1.0,2.0,95,0.06,,,0.63,LWC2 V0.39 B123,2013-07-26 19:25:00,
2013-07-26 13:30:00,73.5,72.0,29.94,NNE,25,1.0,4.0,95,0.04,,,0.63,LWC2 V0.39 B123,2013-07-26 19:30:00,
2013-07-26 13:35:00,73.4,71.9,29.93,NNE,25,1.0,5.0,95,0.00,,,0.63,LWC2 V0.39 B123,2013-07-26 19:35:00,
2013-07-26 13:40:00,73.4,71.9,29.94,NE,45,1.0,5.0,95,0.00,,,0.63,LWC2 V0.39 B123,2013-07-26 19:40:00,
2013-07-26 13:45:00,73.4,71.9,29.94,NE,49,2.0,4.0,95,0.00,,,0.63,LWC2 V0.39 B123,2013-07-26 19:45:00,
2013-07-26 13:50:00,73.3,71.8,29.94,NE,43,0.0,1.0,95,0.00,,,0.64,LWC2 V0.39 B123,2013-07-26 19:50:00,
2013-07-26 13:55:00,73.3,71.8,29.93,ENE,65,0.0,2.0,95,0.00,,,0.64,LWC2 V0.39 B123,2013-07-26 19:55:00,
2013-07-26 14:00:00,73.3,71.8,29.93,NE,43,1.0,2.0,95,0.08,,,0.65,LWC2 V0.39 B123,2013-07-26 20:00:00,
2013-07-26 14:05:00,73.3,71.8,29.93,NE,39,0.0,2.0,95,0.14,,,0.66,LWC2 V0.39 B123,2013-07-26 20:05:00,
2013-07-26 14:10:00,73.6,72.1,29.93,NE,49,0.0,0.0,95,0.10,,,0.67,LWC2 V0.39 B123,2013-07-26 20:10:00,
2013-07-26 14:15:00,73.7,72.2,29.93,ESE,108,0.0,0.0,95,0.07,,,0.67,LWC2 V0.39 B123,2013-07-26 20:15:00,
2013-07-26 14:20:00,73.9,72.4,29.92,ESE,121,0.0,0.0,95,0.04,,,0.67,LWC2 V0.39 B123,2013-07-26 20:20:00,
2013-07-26 14:25:00,74.4,72.9,29.92,ESE,107,0.0,0.0,95,0.00,,,0.67,LWC2 V0.39 B123,2013-07-26 20:25:00,
2013-07-26 14:30:00,74.8,73.3,29.92,ESE,108,0.0,0.0,95,0.00,,,0.67,LWC2 V0.39 B123,2013-07-26 20:30:00,
2013-07-26 14:35:00,75.4,73.9,29.91,SE,133,0.0,0.0,95,0.00,,,0.67,LWC2 V0.39 B123,2013-07-26 20:35:00,
2013-07-26 14:41:00,75.9,74.0,29.92,NE,51,0.0,0.0,94,0.00,,,0.67,LWC2 V0.39 B123,2013-07-26 20:41:00,
2013-07-26 14:47:00,76.1,73.3,29.92,SE,139,1.0,1.0,91,0.00,,,0.67,LWC2 V0.39 B123,2013-07-26 20:47:00,
2013-07-26 14:52:00,76.9,74.4,29.92,NNE,32,0.0,1.0,92,0.00,,,0.67,LWC2 V0.39 B123,2013-07-26 20:52:00,
2013-07-26 14:57:00,77.4,73.9,29.92,ESE,120,0.0,1.0,89,0.00,,,0.67,LWC2 V0.39 B123,2013-07-26 20:57:00,
2013-07-26 15:02:00,77.7,74.2,29.92,SE,127,0.0,2.0,89,0.00,,,0.67,LWC2 V0.39 B123,2013-07-26 21:02:00,
2013-07-26 15:07:00,78.1,74.2,29.92,East,96,0.0,2.0,88,0.00,,,0.67,LWC2 V0.39 B123,2013-07-26 21:07:00,
2013-07-26 15:13:00,78.2,73.3,29.92,ESE,118,1.0,1.0,85,0.00,,,0.67,LWC2 V0.39 B123,2013-07-26 21:13:00,
2013-07-26 15:18:00,78.7,74.5,29.92,SE,125,0.0,1.0,87,0.00,,,0.67,LWC2 V0.39 B123,2013-07-26 21:18:00,
2013-07-26 15:23:00,79.1,74.9,29.92,SE,125,0.0,2.0,87,0.00,,,0.67,LWC2 V0.39 B123,2013-07-26 21:23:00,
2013-07-26 15:28:00,79.6,75.0,29.92,ESE,107,0.0,1.0,86,0.00,,,0.67,LWC2 V0.39 B123,2013-07-26 21:28:00,
2013-07-26 15:33:00,80.3,75.7,29.92,East,93,0.0,3.0,86,0.00,,,0.67,LWC2 V0.39 B123,2013-07-26 21:33:00,
2013-07-26 15:38:00,80.3,75.0,29.92,ENE,74,0.0,0.0,84,0.00,,,0.67,LWC2 V0.39 B123,2013-07-26 21:38:00,
2013-07-26 15:43:00,79.8,74.5,29.92,NE,40,0.0,1.0,84,0.00,,,0.67,LWC2 V0.39 B123,2013-07-26 21:43:00,
2013-07-26 15:48:00,79.5,74.2,29.92,ESE,109,0.0,0.0,84,0.00,,,0.67,LWC2 V0.39 B123,2013-07-26 21:48:00,
2013-07-26 15:53:00,79.1,74.2,29.92,ENE,69,0.0,1.0,85,0.00,,,0.67,LWC2 V0.39 B123,2013-07-26 21:53:00,
2013-07-26 15:58:00,78.7,73.8,29.92,NE,51,0.0,2.0,85,0.00,,,0.67,LWC2 V0.39 B123,2013-07-26 21:58:00,
2013-07-26 16:03:00,78.6,74.0,29.92,NE,55,0.0,1.0,86,0.00,,,0.67,LWC2 V0.39 B123,2013-07-26 22:03:00,
2013-07-26 16:08:00,79.1,74.9,29.92,NE,56,0.0,0.0,87,0.00,,,0.67,LWC2 V0.39 B123,2013-07-26 22:08:00,
2013-07-26 16:13:00,80.1,75.2,29.92,ENE,78,0.0,2.0,85,0.00,,,0.67,LWC2 V0.39 B123,2013-07-26 22:13:00,
2013-07-26 16:18:00,80.9,75.2,29.92,ENE,75,1.0,1.0,83,0.00,,,0.67,LWC2 V0.39 B123,2013-07-26 22:18:00,
2013-07-26 16:23:00,80.3,74.3,29.92,East,101,0.0,3.0,82,0.00,,,0.67,LWC2 V0.39 B123,2013-07-26 22:23:00,
2013-07-26 16:28:00,80.2,74.6,29.92,East,86,0.0,2.0,83,0.00,,,0.67,LWC2 V0.39 B123,2013-07-26 22:28:00,
2013-07-26 16:33:00,80.2,74.6,29.93,ENE,67,1.0,2.0,83,0.00,,,0.67,LWC2 V0.39 B123,2013-07-26 22:33:00,
2013-07-26 16:38:00,79.5,73.5,29.93,NE,44,0.0,3.0,82,0.00,,,0.67,LWC2 V0.39 B123,2013-07-26 22:38:00,
2013-07-26 16:43:00,78.7,73.4,29.92,East,82,1.0,2.0,84,0.00,,,0.67,LWC2 V0.39 B123,2013-07-26 22:43:00,
2013-07-26 16:48:00,78.9,74.3,29.93,ENE,75,2.0,2.0,86,0.00,,,0.67,LWC2 V0.39 B123,2013-07-26 22:48:00,
2013-07-26 16:53:00,79.9,74.3,29.93,East,80,2.0,3.0,83,0.00,,,0.67,LWC2 V0.39 B123,2013-07-26 22:53:00,
2013-07-26 16:58:00,80.3,73.9,29.93,ENE,65,2.0,5.0,81,0.00,,,0.67,LWC2 V0.39 B123,2013-07-26 22:58:00,
2013-07-26 17:03:00,80.8,74.8,29.92,ENE,77,1.0,2.0,82,0.00,,,0.67,LWC2 V0.39 B123,2013-07-26 23:03:00,
2013-07-26 17:08:00,81.2,74.4,29.92,ESE,113,1.0,4.0,80,0.00,,,0.67,LWC2 V0.39 B123,2013-07-26 23:08:00,
2013-07-26 17:13:00,81.0,74.2,29.92,East,86,0.0,5.0,80,0.00,,,0.67,LWC2 V0.39 B123,2013-07-26 23:13:00,
2013-07-26 17:18:00,80.3,73.5,29.92,East,79,1.0,3.0,80,0.00,,,0.67,LWC2 V0.39 B123,2013-07-26 23:18:00,
2013-07-26 17:23:00,79.5,73.1,29.92,East,89,1.0,5.0,81,0.00,,,0.67,LWC2 V0.39 B123,2013-07-26 23:23:00,
2013-07-26 17:28:00,79.3,73.3,29.92,ENE,71,1.0,4.0,82,0.00,,,0.67,LWC2 V0.39 B123,2013-07-26 23:28:00,
2013-07-26 17:33:00,79.1,73.1,29.92,ENE,67,0.0,2.0,82,0.00,,,0.67,LWC2 V0.39 B123,2013-07-26 23:33:00,
2013-07-26 17:38:00,79.3,73.3,29.92,East,92,1.0,3.0,82,0.00,,,0.67,LWC2 V0.39 B123,2013-07-26 23:38:00,
2013-07-26 17:43:00,79.7,73.0,29.92,ENE,75,1.0,2.0,80,0.00,,,0.67,LWC2 V0.39 B123,2013-07-26 23:43:00,
2013-07-26 17:48:00,79.7,73.0,29.92,ESE,117,2.0,3.0,80,0.00,,,0.67,LWC2 V0.39 B123,2013-07-26 23:48:00,
2013-07-26 17:53:00,79.5,72.4,29.92,East,79,1.0,5.0,79,0.00,,,0.67,LWC2 V0.39 B123,2013-07-26 23:53:00,
2013-07-26 17:58:00,79.5,72.8,29.92,ESE,123,2.0,4.0,80,0.00,,,0.67,LWC2 V0.39 B123,2013-07-26 23:58:00,
2013-07-26 18:03:00,79.3,72.6,29.92,SE,145,2.0,5.0,80,0.00,,,0.67,LWC2 V0.39 B123,2013-07-27 00:03:00,
2013-07-26 18:08:00,78.9,72.9,29.92,ESE,114,2.0,2.0,82,0.00,,,0.67,LWC2 V0.39 B123,2013-07-27 00:08:00,
2013-07-26 18:13:00,78.5,72.5,29.93,ESE,118,3.0,7.0,82,0.00,,,0.67,LWC2 V0.39 B123,2013-07-27 00:13:00,
2013-07-26 18:18:00,78.1,72.5,29.93,ESE,110,3.0,6.0,83,0.00,,,0.67,LWC2 V0.39 B123,2013-07-27 00:18:00,
2013-07-26 18:23:00,77.8,72.6,29.93,East,89,0.0,1.0,84,0.00,,,0.67,LWC2 V0.39 B123,2013-07-27 00:23:00,
2013-07-26 18:28:00,77.5,72.3,29.92,ESE,115,0.0,5.0,84,0.00,,,0.67,LWC2 V0.39 B123,2013-07-27 00:28:00,
2013-07-26 18:33:00,77.1,71.9,29.92,East,82,1.0,3.0,84,0.00,,,0.67,LWC2 V0.39 B123,2013-07-27 00:33:00,
2013-07-26 18:38:00,76.9,71.7,29.93,ENE,68,0.0,2.0,84,0.00,,,0.67,LWC2 V0.39 B123,2013-07-27 00:38:00,
2013-07-26 18:43:00,76.8,71.9,29.93,ENE,68,1.0,2.0,85,0.00,,,0.67,LWC2 V0.39 B123,2013-07-27 00:43:00,
2013-07-26 18:48:00,76.8,71.6,29.93,East,86,1.0,5.0,84,0.00,,,0.67,LWC2 V0.39 B123,2013-07-27 00:48:00,
2013-07-26 18:53:00,76.8,71.6,29.93,East,79,0.0,1.0,84,0.00,,,0.67,LWC2 V0.39 B123,2013-07-27 00:53:00,
2013-07-26 18:58:00,76.6,71.4,29.93,ENE,64,1.0,4.0,84,0.00,,,0.67,LWC2 V0.39 B123,2013-07-27 00:58:00,
2013-07-26 19:03:00,76.3,71.1,29.93,ESE,109,1.0,4.0,84,0.00,,,0.67,LWC2 V0.39 B123,2013-07-27 01:03:00,
2013-07-26 19:08:00,76.2,71.0,29.93,East,97,1.0,2.0,84,0.00,,,0.67,LWC2 V0.39 B123,2013-07-27 01:08:00,
2013-07-26 19:13:00,76.0,70.8,29.93,ENE,76,0.0,2.0,84,0.00,,,0.67,LWC2 V0.39 B123,2013-07-27 01:13:00,
2013-07-26 19:18:00,75.8,71.0,29.93,ENE,75,1.0,4.0,85,0.00,,,0.67,LWC2 V0.39 B123,2013-07-27 01:18:00,
2013-07-26 19:23:00,75.6,71.1,29.93,ESE,105,0.0,2.0,86,0.00,,,0.67,LWC2 V0.39 B123,2013-07-27 01:23:00,
2013-07-26 19:28:00,75.4,70.9,29.93,East,101,0.0,0.0,86,0.00,,,0.67,LWC2 V0.39 B123,2013-07-27 01:28:00,
2013-07-26 19:33:00,75.2,71.1,29.94,NE,49,0.0,0.0,87,0.00,,,0.67,LWC2 V0.39 B123,2013-07-27 01:33:00,
2013-07-26 19:38:00,75.0,70.9,29.94,East,96,0.0,0.0,87,0.00,,,0.67,LWC2 V0.39 B123,2013-07-27 01:38:00,
2013-07-26 19:43:00,74.8,71.0,29.94,East,79,0.0,1.0,88,0.00,,,0.67,LWC2 V0.39 B123,2013-07-27 01:43:00,
2013-07-26 19:48:00,74.8,71.0,29.94,East,94,0.0,2.0,88,0.00,,,0.67,LWC2 V0.39 B123,2013-07-27 01:48:00,
2013-07-26 19:53:00,74.7,70.9,29.94,East,88,0.0,4.0,88,0.00,,,0.67,LWC2 V0.39 B123,2013-07-27 01:53:00,
2013-07-26 19:58:00,74.5,70.7,29.94,East,81,0.0,1.0,88,0.00,,,0.67,LWC2 V0.39 B123,2013-07-27 01:58:00,
2013-07-26 20:03:00,74.3,70.8,29.94,East,89,0.0,0.0,89,0.00,,,0.67,LWC2 V0.39 B123,2013-07-27 02:03:00,
2013-07-26 20:08:00,74.1,70.6,29.94,East,88,0.0,0.0,89,0.00,,,0.67,LWC2 V0.39 B123,2013-07-27 02:08:00,
2013-07-26 20:13:00,73.9,70.8,29.95,East,79,0.0,0.0,90,0.00,,,0.67,LWC2 V0.39 B123,2013-07-27 02:13:00,
2013-07-26 20:18:00,73.8,70.7,29.95,East,90,0.0,2.0,90,0.00,,,0.67,LWC2 V0.39 B123,2013-07-27 02:18:00,
2013-07-26 20:23:00,73.8,71.0,29.95,ESE,108,0.0,1.0,91,0.00,,,0.67,LWC2 V0.39 B123,2013-07-27 02:23:00,
2013-07-26 20:28:00,73.7,70.9,29.95,ESE,122,2.0,2.0,91,0.00,,,0.67,LWC2 V0.39 B123,2013-07-27 02:28:00,
2013-07-26 20:33:00,73.6,70.8,29.95,ESE,111,0.0,2.0,91,0.00,,,0.67,LWC2 V0.39 B123,2013-07-27 02:33:00,
2013-07-26 20:38:00,73.5,70.7,29.95,East,96,0.0,4.0,91,0.00,,,0.67,LWC2 V0.39 B123,2013-07-27 02:38:00,
2013-07-26 20:43:00,73.4,70.6,29.95,ESE,109,0.0,3.0,91,0.00,,,0.67,LWC2 V0.39 B123,2013-07-27 02:43:00,
2013-07-26 20:48:00,73.2,70.4,29.95,SE,134,2.0,2.0,91,0.00,,,0.67,LWC2 V0.39 B123,2013-07-27 02:48:00,
2013-07-26 20:53:00,73.1,70.3,29.96,ESE,104,0.0,1.0,91,0.00,,,0.67,LWC2 V0.39 B123,2013-07-27 02:53:00,
2013-07-26 20:58:00,72.9,70.4,29.96,ESE,107,0.0,2.0,92,0.00,,,0.67,LWC2 V0.39 B123,2013-07-27 02:58:00,
2013-07-26 21:03:00,72.9,70.4,29.96,SE,125,1.0,1.0,92,0.00,,,0.67,LWC2 V0.39 B123,2013-07-27 03:03:00,
2013-07-26 21:08:00,72.7,70.2,29.96,ESE,113,0.0,1.0,92,0.00,,,0.67,LWC2 V0.39 B123,2013-07-27 03:08:00,
2013-07-26 21:14:00,72.5,70.0,29.96,ESE,112,0.0,0.0,92,0.00,,,0.67,LWC2 V0.39 B123,2013-07-27 03:14:00,
2013-07-26 21:19:00,72.4,69.9,29.97,ESE,112,0.0,0.0,92,0.00,,,0.67,LWC2 V0.39 B123,2013-07-27 03:19:00,
2013-07-26 21:24:00,72.3,69.8,29.97,ESE,111,0.0,0.0,92,0.00,,,0.67,LWC2 V0.39 B123,2013-07-27 03:24:00,
2013-07-26 21:29:00,72.0,69.5,29.98,ESE,111,0.0,0.0,92,0.00,,,0.67,LWC2 V0.39 B123,2013-07-27 03:29:00,
2013-07-26 21:34:00,71.8,69.3,29.98,ESE,111,0.0,0.0,92,0.00,,,0.67,LWC2 V0.39 B123,2013-07-27 03:34:00,
2013-07-26 21:39:00,71.5,69.0,29.98,ESE,112,0.0,0.0,92,0.00,,,0.67,LWC2 V0.39 B123,2013-07-27 03:39:00,
2013-07-26 21:44:00,71.4,69.3,29.98,ESE,112,0.0,0.0,93,0.00,,,0.67,LWC2 V0.39 B123,2013-07-27 03:44:00,
2013-07-26 21:49:00,71.3,69.5,29.98,ESE,112,0.0,0.0,94,0.00,,,0.67,LWC2 V0.39 B123,2013-07-27 03:49:00,
2013-07-26 21:54:00,71.2,69.4,29.98,ESE,111,0.0,0.0,94,0.00,,,0.67,LWC2 V0.39 B123,2013-07-27 03:54:00,
2013-07-26 21:59:00,71.3,69.5,29.98,ESE,112,0.0,0.0,94,0.00,,,0.67,LWC2 V0.39 B123,2013-07-27 03:59:00,
2013-07-26 22:01:00,71.3,69.5,29.98,ESE,111,0.0,0.0,94,0.00,,,0.67,LWC2 V0.39 B123,2013-07-27 04:01:00,
2013-07-26 22:02:00,71.3,69.8,29.98,ESE,111,0.0,0.0,95,0.00,,,0.67,LWC2 V0.39 B123,2013-07-27 04:02:00,
2013-07-26 22:05:00,71.4,69.9,29.98,ESE,112,0.0,0.0,95,0.00,,,0.67,LWC2 V0.39 B123,2013-07-27 04:05:00,
2013-07-26 22:10:00,71.4,69.9,29.98,ESE,111,0.0,0.0,95,0.00,,,0.67,LWC2 V0.39 B123,2013-07-27 04:10:00,